Regional Weather Roundup
Issued by NWS Cleveland, OH

Home | Current Version | Previous Version | Text Only | Print | Product List | Glossary Off
Versions: 1 2 3 4 5 6 7 8 9 10 11 12 13 14 15 16 17 18 19 20 21 22 23 24 25 26 27 28 29 30 31 32 33 34 35 36 37 38 39 40 41 42 43 44 45 46 47 48 49 50

000
ASUS41 KCLE 300612
RWRCLE
OHIO REGIONAL WEATHER ROUNDUP
NATIONAL WEATHER SERVICE WILMINGTON, OH
200 AM EDT SAT APR 30 2016

NOTE: "FAIR" INDICATES FEW OR NO CLOUDS BELOW 12,000 FEET WITH NO
SIGNIFICANT WEATHER AND/OR OBSTRUCTIONS TO VISIBILITY.

OHZ001>008-015>018-024>027-034-035-043-044-300700-
   NORTHWEST OHIO

CITY           SKY/WX    TMP DP  RH WIND       PRES   REMARKS
DEFIANCE       CLOUDY    46  39  76 E6        30.13F
FINDLAY        FAIR      42  36  79 E3        30.13F
TOLEDO EXPRESS CLOUDY    44  38  79 S3        30.15S
TOLEDO EXEC    FAIR      42  37  82 CALM      30.16S
LIMA           FAIR      44  41  89 E10       30.11F
$$

OHZ009>014-019>023-028>033-038-089-300700-
   NORTHEAST OHIO

CITY           SKY/WX    TMP DP  RH WIND       PRES   REMARKS
CLE-HOPKINS    FAIR      41  36  82 CALM      30.16F
CLE-LAKEFRONT  FAIR      44  39  82 N6        30.14F
CUY CO. ARPT   NOT AVBL
LORAIN-ELYRIA  FAIR      38  35  89 NE5       30.13F
ASHTABULA      FAIR      35  33  92 CALM      30.16S
AKRON-CANTON   FAIR      40  37  89 CALM      30.12F FOG
WOOSTER        FAIR      36  35  96 CALM      30.13F FOG
MANSFIELD      FAIR      38  37  97 NE3       30.12F
YOUNGSTOWN     FAIR      37  34  89 N5        30.13S
$$

OHZ042-051>053-060>062-070>072-077>081-300700-
  SOUTHWEST OHIO

CITY           SKY/WX    TMP DP  RH WIND       PRES   REMARKS
CINC-COVINGTON CLOUDY    57  49  74 NE16      30.02F
CINC-LUNKEN    CLOUDY    55  50  83 NE13      30.05F
HAMILTON       CLOUDY    54  47  77 E13       30.08F
DAYTON         CLOUDY    49  43  80 E9        30.10F
WRIGHT-PAT AFB CLOUDY    50  45  82 E8        30.10F
DAYTON GENERAL CLOUDY    50  43  77 E9        30.08F
WILMINGTON     CLOUDY    50  46  86 E7        30.10F
$$

OHZ036-037-039>041-045>050-054>059-063>069-073>076-082>088-300700-
  CENTRAL AND SOUTHEAST OHIO

CITY           SKY/WX    TMP DP  RH WIND       PRES   REMARKS
COLUMBUS       CLOUDY    47  41  80 E5        30.12R
OSU AIRPORT    FAIR      47  41  80 NE6       30.12R
BOLTON FIELD   FAIR      49  42  76 NE5       30.13R
RICKENBACK AFB FAIR      48  42  82 NE5       30.12R
NEWARK         MOCLDY    47  40  76 VRB6      30.12S
MARION         FAIR      41  39  93 NE3       30.13F FOG
LANCASTER      FAIR      49  44  83 CALM      30.13R
ZANESVILLE     CLOUDY    47  42  83 N6        30.12S
NEW PHILLY     MOCLDY    46  41  82 CALM      30.14R
$$



USA.gov is the U.S. government's official web portal to all federal, state and local government web resources and services.